Weather History for KABY - August, 2013

Change the Weather History Date:

Monday, August 12, 2013

  Actual Average Record
Temperature  
Mean Temperature 86 °F 82 °F  
Max Temperature 96 °F 92 °F 100 °F (1957)
Min Temperature 75 °F 72 °F 62 °F (1989)
Degree Days  
Heating Degree Days 0 0  
Month to date heating degree days 0 0  
Since 1 June heating degree days 0 0  
Since 1 July heating degree days 0 0  
Cooling Degree Days 21 17  
Month to date cooling degree days 224 204  
Year to date cooling degree days 1537 1650  
Since 1 June cooling degree days 1182 1210  
Growing Degree Days 35 (Base 50)    
Moisture  
Dew Point 73 °F    
Average Humidity 70    
Maximum Humidity 94    
Minimum Humidity 46    
Precipitation  
Precipitation 0.00 in - 0.68 in (2003)
Month to date precipitation 0.17  
Year to date precipitation 33.10  
Sea Level Pressure  
Sea Level Pressure 30.09 in    
Wind  
Wind Speed 4 mph (West)    
Max Wind Speed 17 mph    
Max Gust Speed 23 mph    
Visibility 10 miles    
Events      
T = Trace of Precipitation, MM = Missing Value Source: NWS Daily Summary

Daily Weather History Graph

Daily Weather History Graph

Search for Another Location

Airport or City:

Trip Planner

Search our weather history database for the weather conditions in past years. The results will help you decide how hot, cold, wet, or windy it might be!

Date:

Astronomy

Aug. 12, 2013 Rise Set
Actual Time 7:00 AM EDT 8:22 PM EDT
Civil Twilight 6:34 AM EDT 8:48 PM EDT
Nautical Twilight 6:03 AM EDT 9:19 PM EDT
Astronomical Twilight 5:31 AM EDT 9:51 PM EDT
Moon 12:23 PM EDT (8/12) 11:42 PM EDT (8/12)
Length of Visible Light 14h 14m
Length of Day
13h 22m
Waxing Crescent, 31% of the Moon is Illuminated
Aug 12
Waxing Crescent
Aug 14
First Quarter
Aug 20
Full
Aug 28
Last Quarter
Sep 5
New

Hourly Weather History & Observations

Time (EDT) Temp. Heat Index Dew Point Humidity Pressure Visibility Wind Dir Wind Speed Gust Speed Precip Events Conditions
12:53 AM 79.0 °F - 75.0 °F 88% 30.14 in 10.0 mi Calm Calm - N/A   Clear
1:53 AM 78.1 °F - 75.0 °F 90% 30.13 in 10.0 mi WNW 3.5 mph - N/A   Clear
2:53 AM 77.0 °F - 75.0 °F 94% 30.12 in 10.0 mi Calm Calm - N/A   Clear
3:53 AM 75.9 °F - 73.9 °F 94% 30.12 in 10.0 mi WSW 3.5 mph - N/A   Clear
4:53 AM 75.9 °F - 73.9 °F 94% 30.12 in 10.0 mi Calm Calm - N/A   Clear
5:53 AM 75.0 °F - 73.9 °F 96% 30.13 in 10.0 mi Calm Calm - N/A   Clear
6:53 AM 75.0 °F - 73.9 °F 96% 30.14 in 10.0 mi Calm Calm - N/A   Mostly Cloudy
7:53 AM 75.9 °F - 73.9 °F 94% 30.14 in 10.0 mi Calm Calm - N/A   Clear
8:53 AM 80.1 °F 84.5 °F 73.9 °F 81% 30.14 in 10.0 mi Calm Calm - N/A   Clear
9:53 AM 86.0 °F 95.1 °F 75.0 °F 70% 30.14 in 10.0 mi Variable 3.5 mph - N/A   Clear
10:53 AM 88.0 °F 97.5 °F 75.0 °F 65% 30.13 in 10.0 mi NW 4.6 mph - N/A   Clear
11:53 AM 91.0 °F 98.2 °F 72.0 °F 53% 30.13 in 10.0 mi NW 6.9 mph - N/A   Mostly Cloudy
12:53 PM 93.9 °F 103.4 °F 73.0 °F 51% 30.12 in 10.0 mi WNW 5.8 mph - N/A   Mostly Cloudy
1:53 PM 93.9 °F 103.4 °F 73.0 °F 51% 30.10 in 10.0 mi Variable 3.5 mph - N/A   Mostly Cloudy
2:53 PM 93.9 °F 102.1 °F 72.0 °F 49% 30.07 in 10.0 mi SW 8.1 mph - N/A   Scattered Clouds
3:53 PM 95.0 °F 102.5 °F 71.1 °F 46% 30.04 in 10.0 mi West 6.9 mph - N/A   Scattered Clouds
4:53 PM 93.9 °F 102.1 °F 72.0 °F 49% 30.03 in 10.0 mi WSW 4.6 mph - N/A   Clear
5:53 PM 93.9 °F 102.1 °F 72.0 °F 49% 30.03 in 10.0 mi WSW 5.8 mph - N/A   Partly Cloudy
6:53 PM 93.0 °F 100.7 °F 72.0 °F 50% 30.03 in 10.0 mi West 6.9 mph - N/A   Partly Cloudy
7:53 PM 88.0 °F 96.5 °F 73.9 °F 63% 30.03 in 10.0 mi WSW 4.6 mph - N/A   Clear
8:53 PM 82.9 °F 88.0 °F 72.0 °F 69% 30.02 in 10.0 mi West 4.6 mph - N/A   Clear
9:53 PM 80.1 °F 83.8 °F 72.0 °F 76% 30.05 in 10.0 mi West 5.8 mph - N/A   Clear
10:53 PM 79.0 °F - 70.0 °F 74% 30.06 in 10.0 mi West 6.9 mph - N/A   Clear
11:53 PM 75.9 °F - 70.0 °F 82% 30.07 in 10.0 mi WSW 3.5 mph - N/A   Clear